Regional Weather Roundup
Issued by NWS

Home | Current Version | Previous Version | Text Only | Print | Product List | Glossary On
Versions: 1 2 3 4 5 6 7 8 9 10 11 12 13 14 15 16 17 18 19 20 21 22 23 24 25 26 27 28 29 30 31 32 33 34 35 36 37 38 39 40 41 42 43 44 45 46 47 48 49 50
000
ASUS42 KKEY 182310
RWRKEY

FLORIDA REGIONAL WEATHER ROUNDUP FOR THE FLORIDA KEYS
NATIONAL WEATHER SERVICE KEY WEST FLORIDA
600 PM EST SAT NOV 18 2017

...SOUTH FLORIDA AND THE KEYS...

CITY           SKY/WX    TMP DP  RH WIND       PRES   REMARKS
FORT MYERS     CLEAR     74  59  59 W7        29.94R
SW REGIONAL AP CLEAR     71  61  70 W5        29.94S
NAPLES         CLEAR     73  62  68 W5        29.94S
MIAMI          PTCLDY    78  66  66 NE6       29.93S
WEST KENDALL   CLEAR     71  64  78 E6        29.93S
HOMESTEAD      CLEAR     74  70  88 NE6       29.92S
MARATHON       CLEAR     76  67  73 NE3       29.92S
KEY WEST INTL  CLEAR     76  65  68 E5        29.94S

...INTERNATIONAL WEATHER...

CITY           SKY/WX    TMP DP  RH WIND       PRES   REMARKS
NASSAU BAHAMAS MOCLDY    79  70  73 NE9       29.93R
CANCUN MEXICO  MOCLDY    77  73  88 E3        29.90R
COZUMEL MEXICO CLOUDY    79  72  78 CALM      29.88R

ADJACENT COASTAL WATERS...

STATION/POSITION TIME  SKY/WX   TEMP    WIND        PRES    WAVE
                                AIR SEA DIR/SP/G            HT/PER
                 (UTC)          (F)     (DEG/KT/KT) (MB)    (FT/S)
PULASKI SHOAL LI 2300            76      70/  7/  8 1014.0R
SAND KEY         2250            76                 1014.2S
LONG KEY         NOT AVBL
MOLASSES REEF    2300            78 80   40/  3/  6 1013.6R
FOWEY ROCKS      2300            77 78  110/  6/  7 1014.1R
Buoy 42097       2230               78                N/A     2/ 5

$$



USA.gov is the U.S. government's official web portal to all federal, state and local government web resources and services.